Regional Weather Roundup
Issued by NWS Kansas City/Pleasant Hill, MO

Home | Current Version | Previous Version | Graphics & Text | Print | Product List | Glossary Off
Versions: 1 2 3 4 5 6 7 8 9 10 11 12 13 14 15 16 17 18 19 20 21 22 23 24 25 26 27 28 29 30 31 32 33 34 35 36 37 38 39 40 41 42 43 44 45 46 47 48 49 50

000
ASUS43 KEAX 010110
RWREAX

WEATHER ROUNDUP FOR EASTERN KANSAS AND NORTHWEST MISSOURI
NATIONAL WEATHER SERVICE KANSAS CITY/PLEASANT HILL MO
800 PM CDT MON AUG 31 2015

KSZ040-057-103>105-MOZ028-029-037-043-010200-
...KANSAS CITY METROPOLITAN AREA...

CITY           SKY/WX    TMP DP  RH WIND       PRES   REMARKS
K.C. INTL      CLEAR     78  69  73 S9        29.95S
K.C. DOWNTOWN  CLEAR     84  70  62 S7        29.94R
LEES SUMMIT    CLEAR     83  69  62 S6        29.97R
OLATHE - IXD   CLEAR     80  71  74 SE8       29.96S
OLATHE - OJC   CLEAR     80  71  74 S8        29.96R
LAWRENCE       CLEAR     80  71  74 E6        29.94R

$$

MOZ001>008-011>017-020>025-030>033-038>040-044>046-053-054-010200-
...NORTHERN AND CENTRAL MISSOURI...

CITY           SKY/WX    TMP DP  RH WIND       PRES   REMARKS
ST. JOSEPH     CLEAR     79  71  76 S7        29.93S
MOSBY          CLEAR     82  70  65 S3        29.95R
WARRENSBURG    CLEAR     81  68  65 S3        29.97R
WHITEMAN AFB   PTCLDY    79  70  72 S6        29.96S
CLINTON        CLEAR     82  72  69 CALM      29.98S
SEDALIA        CLEAR     83  69  62 SW5       30.00R
WARSAW         NOT AVBL
CHILLICOTHE      N/A     80  72  76 CALM      29.96R
KIRKSVILLE     CLEAR     77  70  79 S7        29.98S

$$

MOZ041-047>049-056>058-063>065-088>090-097-010200-
...EASTERN AND SOUTHERN MISSOURI...

CITY           SKY/WX    TMP DP  RH WIND       PRES   REMARKS
ST. LOUIS INTL MOCLDY    83  71  67 SE10      30.02S
SPIRIT OF STL  MOCLDY    82  73  74 SE3       29.99S
COLUMBIA       CLEAR     80  71  74 S7        30.00R
JEFFERSON CITY CLEAR     84  70  62 SE3       29.98R
ROLLA          PTCLDY    78  69  73 S6        30.02S HAZE
OSAGE BEACH    PTCLDY    82  70  65 S3        30.01S
SPRINGFIELD    CLEAR     80  67  64 S8        30.03S
BRANSON        MOCLDY    75  70  83 CALM      30.05S
JOPLIN         CLEAR     80  69  69 S6        30.00S
WEST PLAINS    CLEAR     80  68  66 S6        30.07R

$$

IAZ060-094-KSZ022-034>040-054-083-096-NEZ052-066-093-010200-
...KANSAS...SOUTHEAST NEBRASKA AND IOWA...

CITY           SKY/WX    TMP DP  RH WIND       PRES   REMARKS
TOPEKA         CLEAR     80  71  74 E7        29.92S
MANHATTAN      CLEAR     83  69  62 S5        29.90R
EMPORIA        CLEAR     82  67  60 S13       29.94R
CHANUTE        CLEAR     80  70  71 S8        29.97R
WICHITA        PTCLDY    85  65  51 SE12      29.90S
OMAHA          PTCLDY    80  69  69 SE6       29.90S
LINCOLN        CLEAR     83  68  60 SE7       29.89S
FALLS CITY     CLEAR     78  71  79 SE7       29.90S
LAMONI         CLEAR     79  69  71 S7        29.96R
DES MOINES     PTCLDY    81  71  71 S6        29.92S

$$




USA.gov is the U.S. government's official web portal to all federal, state and local government web resources and services.